Location: Ciserano
(45.5833°N, 9.6000°E)
Time: 09:10:40
(UTC+00:00)

CZ-4B R/B - Pass Details

Date: 29 November 2020
Orbit: 485 x 653 km, 97.9° (Epoch: 25 January)

Event Time Altitude Azimuth Distance (km) Brightness Sun altitude
Rises 05:08:22 0° 8° (N) 2,989 6.5 -15.5°
Reaches altitude 10° 05:10:40 10° 3° (N) 2,070 5.6 -15.1°
Maximum altitude 05:15:02 49° 289° (WNW) 841 3.3 -14.4°
Drops below altitude 10° 05:19:16 10° 215° (SW) 2,009 5.5 -13.7°
Sets 05:21:28 0° 210° (SSW) 2,891 6.4 -13.3°
